Погода в Донгароне

Россия / Республика Северная Осетия — Алания     43°06′22″N   44°43′14″E
темп.,
°C
ветер,
м/с
пор.,
м/с
влажн.,
%
обл.,
%
осадки,
мм/ч
давл.,
гПа
погр.,
м
12 апреля, пн
пн1200:00+6зсз0185100 0.0 101631
03:00+6сз1185100 0.0 101668
06:00+5зсз1289100 0.0 1019109
09:00+8сз2273100 0.0 1019569
12:00+11ссз3264100 0.1 10191099
15:00+10с2270100 0.1 1020889
18:00+9с1179100 0.0 1021356
21:00+8ссз118699 0.1 1021225
13 апреля, вт
вт1300:00+7сз1192100 0.1 1021211
03:00+6зсз1297100 1.3 1022294
06:00+6ссз1197100 0.1 1022278
09:00+7ссз1195100 0.2 1021336
12:00+7с119499 0.2 1020404
15:00+7ссз1194100 0.7 1020375
18:00+7сз1194100 0.2 1020240
21:00+6з2398100 1.6 1020255
14 апреля, ср
ср1400:00+5зсз1295100 4.4 1019196
03:00+5зсз1294100 6.8 1018143
06:00+5ю119393 0.4 1018105
09:00+6сз2293100 1.3 1018397
12:00+7сз128599 1.4 1017512
15:00+9ююз117692 2.3 1016726
18:00+8зюз1282100 0.9 1017295
21:00+7ююз1289100 1.9 1018169
15 апреля, чт
чт1500:00+6юз118671 0.0 101714
03:00+5ю22784 0.0 101822
06:00+5ю22700 0.0 101830
09:00+12с115319 0.0 1016608
12:00+15с32408 0.0 10151454
15:00+16с333745 0.0 10141831
18:00+13ссв2451100 0.0 1016288
21:00+10ююв2262100 0.0 101740
16 апреля, пт
пт1600:00+9ю2163100 0.0 101720
03:00+8ю216121 0.0 101717
06:00+7ю22605 0.0 101828
09:00+14ссв224425 0.0 1016936
12:00+17ссв433944 0.1 10151825
15:00+17св334054 0.1 10141811
18:00+14всв35536 0.1 1015371
21:00+10ююв236551 0.2 101658